Location: Friaudour
(46.0460°N, 1.2873°E)
Time: 04:19:14
(UTC+00:00)

Cosmos 1818 - Pass Details

Date: 14 July 2020
Orbit: 777 x 796 km, 65.0° (Epoch: 06 August)

Event Time Altitude Azimuth Distance (km) Brightness Sun altitude
Rises 02:58:12 0° 323° (NW) 3,308 6.9 -11.3°
Reaches altitude 10° 03:00:38 10° 324° (NW) 2,375 6.2 -11.0°
Maximum altitude 03:06:07 89° 237° (WSW) 802 3.6 -10.4°
Drops below altitude 10° 03:11:33 10° 146° (SSE) 2,356 5.9 -9.7°
Sets 03:13:58 0° 147° (SSE) 3,280 6.6 -9.4°
